Weather History for Lee's Summit, MO

Change the Weather History Date:

Friday, April 5, 2013

  Actual Average (KMKC) Record (KMKC)
Temperature  
Mean Temperature 54 °F -  
Max Temperature 69 °F 60 °F 80 °F (2001)
Min Temperature 41 °F 41 °F 28 °F (2007)
Degree Days  
Heating Degree Days 10    
Growing Degree Days 4 (Base 50)    
Moisture  
Dew Point 35 °F    
Average Humidity 46    
Maximum Humidity 73    
Minimum Humidity 33    
Precipitation  
Precipitation 0.00 in - - ()
Sea Level Pressure  
Sea Level Pressure 30.06 in    
Wind  
Wind Speed 7 mph (South)    
Max Wind Speed 15 mph    
Max Gust Speed 22 mph    
Visibility 10 miles    
Events      
Averages and records for this station are not official NWS values.
T = Trace of Precipitation, MM = Missing Value Source: NWS Daily Summary

Daily Weather History Graph

Daily Weather History Graph

Search for Another Location

Airport:

Trip Planner

Search our weather history database for the weather conditions in past years. The results will help you decide how hot, cold, wet, or windy it might be!

Date:

Astronomy

Apr. 05, 2013 Rise Set
Actual Time 6:55 AM CDT 7:45 PM CDT
Civil Twilight 6:28 AM CDT 8:12 PM CDT
Nautical Twilight 5:56 AM CDT 8:44 PM CDT
Astronomical Twilight 5:23 AM CDT 9:17 PM CDT
Moon 4:00 AM CDT (4/5) 3:12 PM CDT (4/5)
Length of Visible Light 13h 43m
Length of Day
12h 49m
Waning Crescent, 23% of the Moon is Illuminated
Apr 5
Waning Crescent
Apr 10
New
Apr 18
First Quarter
Apr 25
Full
May 2
Last Quarter

Hourly Weather History & Observations

Time (CDT) Temp. Windchill Dew Point Humidity Pressure Visibility Wind Dir Wind Speed Gust Speed Precip Events Conditions
12:53 AM 50.0 °F - 21.9 °F 33% 30.11 in 10.0 mi SSW 3.5 mph - N/A   Clear
1:53 AM 46.9 °F - 26.1 °F 44% 30.12 in 10.0 mi WSW 5.8 mph - N/A   Clear
2:53 AM 46.0 °F 43.1 °F 27.0 °F 47% 30.11 in 10.0 mi SW 5.8 mph - N/A   Clear
3:53 AM 46.0 °F 43.1 °F 28.0 °F 50% 30.12 in 10.0 mi WSW 5.8 mph - N/A   Clear
4:53 AM 46.0 °F 44.8 °F 28.9 °F 51% 30.13 in 10.0 mi NE 3.5 mph - N/A   Clear
5:53 AM 44.1 °F 41.5 °F 28.9 °F 55% 30.13 in 10.0 mi NE 4.6 mph - N/A   Clear
6:53 AM 44.1 °F 42.5 °F 30.0 °F 58% 30.14 in 10.0 mi East 3.5 mph - N/A   Clear
7:53 AM 41.0 °F 37.1 °F 33.1 °F 73% 30.17 in 10.0 mi NE 5.8 mph - N/A   Clear
8:53 AM 48.0 °F - 35.1 °F 61% 30.18 in 10.0 mi East 5.8 mph - N/A   Clear
9:53 AM 51.1 °F - 35.1 °F 54% 30.18 in 10.0 mi East 8.1 mph - N/A   Clear
11:53 AM 57.9 °F - 37.0 °F 46% 30.15 in 10.0 mi ESE 6.9 mph - N/A   Clear
12:53 PM 63.0 °F - 37.9 °F 40% 30.13 in 10.0 mi South 8.1 mph - N/A   Clear
1:53 PM 64.9 °F - 37.9 °F 37% 30.09 in 10.0 mi South 15.0 mph 18.4 mph N/A   Clear
2:53 PM 66.9 °F - 39.0 °F 36% 30.05 in 10.0 mi SSW 8.1 mph - N/A   Clear
3:53 PM 68.0 °F - 39.9 °F 36% 30.02 in 10.0 mi SSW 10.4 mph - N/A   Clear
4:53 PM 68.0 °F - 39.0 °F 35% 29.99 in 10.0 mi South 13.8 mph 21.9 mph N/A   Clear
5:53 PM 66.9 °F - 39.9 °F 37% 29.97 in 10.0 mi South 11.5 mph - N/A   Clear
6:53 PM 64.9 °F - 37.9 °F 37% 29.96 in 10.0 mi South 11.5 mph 21.9 mph N/A   Clear
7:53 PM 63.0 °F - 39.0 °F 41% 29.94 in 10.0 mi South 13.8 mph 18.4 mph N/A   Clear
8:53 PM 61.0 °F - 37.9 °F 42% 29.93 in 10.0 mi South 9.2 mph 17.3 mph N/A   Clear
9:53 PM 60.1 °F - 39.0 °F 46% 29.93 in 10.0 mi South 10.4 mph - N/A   Clear
10:53 PM 59.0 °F - 39.0 °F 48% 29.91 in 10.0 mi South 11.5 mph - N/A   Clear
11:53 PM 59.0 °F - 39.9 °F 49% 29.88 in 10.0 mi South 13.8 mph - N/A   Clear